www.pogodaiklimat.ru

Погода и климат >> Архив погоды >> Россия >> Оренбургская область >> Айдырля


ПОГОДА в Айдырля

  • Прогноз погоды в Айдырля
  • Монитор погоды в Айдырля

АРХИВ ПОГОДЫ в Айдырля

Время (UTC), дата Ветер
(напр.,м/с)
 
Видим.   Явления Облачность Т
(С)
Тd
(С)
f
(%)
Тe
(С)
Тes
(С)
Комфортность P
(гПа)
Po
(гПа)
Тmin
(С)
Tmax
(С)
R
(мм)
R24
(мм)
S
(см)
21 12.07 В 6-11
{13}
10 км 4/0
[Ac lent]
+26.7 +7.0 29 +26 +26 жарко 1005.5 968.6
00 13.07 В 3
{11}
20 км 4/0
[Ac trans]
+22.5 +7.1 37 +23 +23 комфорт 1006.2 968.8
03 13.07 ЮВ 6
{10}
20 км 8/4 600 м
[Cu Sc Ac trans]
+27.7 +7.5 28 +27 +28 жарко 1005.3 968.6 +22.1
06 13.07 Ю 7-11
{11}
20 км 8/4 600 м
[Cu med, cong Ac trans Ci fib]
+36.4 +3.9 13 +33 +35 жарко 1004.3 968.6
09 13.07 ЮВ 7-11
{16}
20 км 8/4 600 м
[Cu med, cong Ci fib]
+38.7 +2.7 11 +35 +38 очень
жарко
1003.8 968.3
12 13.07 Ю 7-10
{13}
20 км 6/3 600 м
[Cu med, cong Ci fib]
+39.3 +2.2 10 +36 +37 очень
жарко
1002.8 967.4
15 13.07 ЮВ 6
{10}
20 км 3/0
[Ac lent Ci fib]
+35.8 +4.4 14 +33 +33 жарко 1003.1 967.4 +39.5
18 13.07 ЮВ 7-11
{11}
10 км 4/0
[Ac trans Ci fib]
+29.5 +6.3 23 +28 +28 жарко 1005.0 968.5
21 13.07 ЮВ 7
{12}
10 км 4/0
[Ac trans Ci fib]
+26.1 +4.5 25 +25 +25 комфорт 1005.4 968.4
00 14.07 ЮВ 4 20 км 5/0
[Ac lent Ci fib]
+22.0 +4.6 32 +22 +22 комфорт 1006.4 968.8
03 14.07 ЮВ 6
{11}
20 км 5/0
[Ac lent Ci fib]
+25.8 +7.1 30 +26 +27 жарко 1006.0 968.9 +19.9
06 14.07 ЮВ 6 20 км 6/0
[Ac lent Cs]
+33.3 +6.9 19 +31 +36 жарко 1004.5 968.4
09 14.07 ЮВ 4
{11}
20 км 9/0
[As trans Ci fib]
+35.5 +3.9 14 +33 +39 жарко 1003.9 968.0
12 14.07 Ю 5 20 км 9/0
[Ac As]
+35.2 +4.6 15 +32 +34 жарко 1003.0 967.2
15 14.07 СЗ 2 20 км 9/5 600 м
[Sc Ac As]
+30.9 +11.0 29 +31 +31 жарко 1003.5 967.2 +36.4
18 14.07 СВ 2 10 км 8/4 600 м
[Sc Ac trans]
+26.2 +10.7 38 +27 +27 жарко 1003.1 966.3
21 14.07 ЮВ 5-10
{10}
10 км 6/3 600 м
[Sc Ac trans]
+26.1 +4.4 25 +25 +25 комфорт 1001.3 964.5
00 15.07 В 7-14
{15}
20 км 9/9 870 м
[Cb calv]
+26.0 +6.8 29 +26 +26 жарко 999.2 962.4
03 15.07 ЮВ 9-14
{15}
20 км 6/6 840 м
[Cb calv]
+27.9 +6.3 25 +27 +27 жарко 996.9 960.4 +24.2
06 15.07 Ю 9-12
{16}
20 км 3/0
[Ac lent Ci fib]
+29.6 +13.1 36 +31 +32 жарко 997.5 961.3
09 15.07 ЮЗ 9-15
{15}
20 км 3/3 600 м
[Cu med, cong]
+29.9 +12.1 33 +31 +32 жарко 999.0 962.8
12 15.07 ЮЗ 11-16
{20}
20 км 1/1 600 м
[Cu hum]
+26.1 +10.7 38 +27 +27 жарко 1001.7 964.9
15 15.07 З 9-12
{16}
20 км 1/0
[Ac lent]
+21.3 +9.8 48 +23 +23 комфорт 1004.5 967.0 +31.3
18 15.07 З 8
{12}
10 км 1/0
[Ac lent]
+17.3 +9.0 58 +16 +16 1006.7 968.6
21 15.07 З 6
{11}
10 км 3/0
[Ac lent Ci fib]
+13.7 +9.2 74 +12 +12 1008.0 969.4
00 16.07 З 6 20 км ясно +12.1 +8.9 81 +9 +9 1009.3 970.4
03 16.07 З 8-12
{12}
20 км ясно +17.1 +10.3 64 +16 +17 1010.3 972.0 +11.9
06 16.07 З 8-12
{14}
20 км 3/1 1000 м
[Cu hum Ci fib]
+23.6 +9.1 40 +24 +27 комфорт 1009.8 972.4
09 16.07 З 6-10
{17}
20 км 3/0
[Cs]
+26.9 +8.2 31 +27 +33 жарко 1009.3 972.3
12 16.07 СЗ 6
{11}
20 км 3/0
[Ci fib]
+28.3 +6.6 25 +27 +30 жарко 1009.4 972.5
15 16.07 С 4 20 км 4/0
[Ci fib]
+26.9 +6.5 27 +26 +27 жарко 1010.0 972.9 +28.4
18 16.07 С 1 10 км 3/0
[Ci fib]
+18.7 +6.8 46 +20 +20 1012.6 974.4
21 16.07 С 1 10 км 3/0
[Ci fib]
+14.2 +7.0 62 +15 +15 1014.2 975.4
00 17.07 СЗ 1 20 км 3/0
[Ac trans Ci fib]
+12.2 +7.3 72 +12 +12 1015.4 976.3
03 17.07 В 3 20 км 4/0
[Ac cast Ci fib]
+20.1 +9.7 51 +22 +24 комфорт 1014.8 976.7 +11.3
06 17.07 ЮВ 3 20 км 6/0
[Ac cast Ci fib]
+26.3 +9.8 35 +27 +35 жарко 1013.2 975.9
09 17.07 В 3 20 км 6/3 600 м
[Cu med, cong Ci fib]
+28.8 +8.5 28 +28 +37 жарко 1012.1 975.2
12 17.07 В 3 20 км 3/1 600 м
[Cu hum Ci fib]
+30.3 +7.3 24 +29 +34 жарко 1010.8 974.1
15 17.07 В 2 20 км 8/3 600 м
[Sc Ac cast Ci fib]
+28.9 +7.8 27 +28 +29 жарко 1010.8 974.0 +30.6
18 17.07 В 3 10 км 6/0
[Ac trans Ci fib]
+24.8 +7.5 33 +25 +25 комфорт 1010.6 973.3
21 17.07 СВ 3 10 км 5/0
[Ac trans Ci fib]
+21.3 +6.3 38 +22 +22 комфорт 1011.2 973.5
00 18.07 В 3 20 км 3/0
[Ac lent Ci fib]
+18.0 +6.0 45 +18 +18 1011.9 973.6
03 18.07 ЮВ 7-10
{10}
20 км 3/0
[Ci fib]
+24.2 +7.3 34 +24 +26 комфорт 1011.1 973.7 +16.8
06 18.07 Ю 7-10
{11}
20 км 4/3 600 м
[Cu hum Ci fib]
+31.0 +5.7 20 +29 +32 жарко 1009.9 973.3
09 18.07 Ю 6
{11}
20 км 3/1 600 м
[Cu hum Ci fib]
+34.3 +4.5 16 +32 +37 жарко 1008.6 972.4
12 18.07 Ю 5
{13}
20 км 5/0
[Ac trans Ci fib]
+34.4 +4.5 15 +32 +35 жарко 1007.5 971.4
15 18.07 Ю 4
{10}
20 км 8/5 600 м
[Cb calv Ci fib]
+32.2 +6.1 20 +30 +30 жарко 1007.6 971.3 +35.3
18 18.07 ЮВ 5 10 км 9/6 800 м
[Sc Ac As]
+26.7 +6.8 28 +26 +26 жарко 1008.5 971.5
21 18.07 Ю 6 10 км 6/3 600 м
[Sc Cs]
+25.1 +5.8 29 +25 +25 комфорт 1009.0 971.7
00 19.07 ЮВ 5 20 км 8/1 600 м
[Sc Ac trans Cs]
+20.8 +5.4 37 +22 +22 комфорт 1009.7 971.9
03 19.07 Ю 6
{13}
20 км 8/3 600 м
[Sc Ac trans Ci sp]
+25.4 +4.2 25 +25 +25 комфорт 1009.8 972.6 +20.0
06 19.07 Ю 7
{11}
20 км 9/4 1000 м
[Cb calv Ac trans Ci fib]
+32.7 +4.4 17 +30 +32 жарко 1008.8 972.5
09 19.07 СВ 6
{11}
20 км 6/3 600 м
[Sc Ac trans]
+32.0 +8.6 23 +31 +34 жарко 1008.6 972.2
12 19.07 Ю 6
{11}
20 км 9/6 870 м
[Sc Ac trans]
+34.0 +4.0 15 +31 +32 жарко 1007.5 971.4
15 19.07 СВ 2
{11}
20 км в посл. час дождь 10/10 700 м
[Sc]
+28.9 +10.2 31 +29 +29 жарко 1009.0 972.2 +34.2 0.1
18 19.07 В 3 10 км {дождь} 8/0
[Ac trans]
+27.1 +9.3 33 +27 +27 жарко 1008.5 971.6

 

Местоположение метеостанции Айдырля (Оренбургская область, Россия): широта 51.95 долгота 59.88 высота над уровнем моря 329 м.

В архиве по умолчанию представлена погода в Айдырля за последнюю неделю. Архивные данные за месяц целиком и за предыдущие месяцы, начиная с января 2011 года, Вы можете получить, выбрав интересующий диапазон дат из раскрывающегося списка и нажав кнопку "Ввод!".


*Определитесь, кто Вы:
робот инопланетянин человек

Внимание! Время в таблицах - всемирное. Для получения местного времени необходимо прибавить поправку, которая равна 5 ч.

Смотрите также архив погоды в соседних городах и на ближайших метеорологических станциях:

Погода в Бредах (Челябинская область, Россия) (62 км)
Погода в Энергетике (Оренбургская область, Россия) (75 км)
Погода в Житикаре (Костанайская область, Казахстан) (106 км)
Погода в Кизильском (Челябинская область, Россия) (109 км)
Погода в Зерносовхозе Озерном (Оренбургская область, Россия) (117 км)
Погода в Акъяре (Башкирия, Россия) (117 км)
Погода в Аршалынском (Акмолинская область, Казахстан) (124 км)
Погода в Орске (Оренбургская область, Россия) (132 км)
Погода в Карталы (Челябинская область, Россия) (134 км)
Погода в Домбаровском (Оренбургская область, Россия) (135 км)

Пояснения к столбцам:

Ветер - указаны скорость ветра в м/с - средняя за 10 мин, порывы в срок и между сроками (в фигурных скобках) и направление, откуда дует ветер: С - северный, СВ - северо-восточный, В - восточный, ЮВ - юго-восточный, Ю - южный, ЮЗ - юго-западный, З - западный, СЗ - северо-западный.
Видимость - горизонтальная дальность видимости в метрах или километрах. При видимости от 1 до 10 км при отсутствии осадков обычно наблюдается дымка, при ухудшении видимости до 1 км и менее - туман. В сухую погоду видимость может ухудшаться дымом, пылью или мглою.
Явления - указаны атмосферные явления, наблюдавшиеся в срок или в последний час перед сроком; фигурными скобками обозначены явления, наблюдавшиеся между сроками (за 1-3 часа до срока); квадратными скобками обозначены град или гололедные отложения с указанием их диаметра в мм.
Облачность - указаны через наклонную черту общая и нижняя облачность в баллах и высота нижней границы облаков в метрах; квадратными скобками обозначены формы облаков: Ci - перистые, Cs - перисто-слоистые, Cc - перисто-кучевые, Ac - высококучевые, As - высокослоистые, Sc - слоисто-кучевые, Ns - слоисто-дождевые, Cu - кучевые, Cb - кучево-дождевые. Подробнее классификацию облаков см. в Атласе облаков (PDF).
T - Температура воздуха - температура, измеренная на высоте 2 м над землей.
Td - Температура точки росы - температура, при понижении до которой содержащийся в воздухе водяной пар достигнет насыщения.
f - Относительная влажность воздуха - влажноcть воздуха, измеренная на высоте 2 м над землей.
Te - Эффективная температура - температура, которую ощущает одетый по сезону человек в тени. Характеристика душности погоды. При расчете учитывается влияние влажности воздуха и скорости ветра на теплоощущения человека.
Tes - Эффективная температура на солнце - температура, которую ощущает человек, с поправкой на солнечный нагрев. Характеристика знойности погоды. Зависит от высоты солнца над горизонтом, облачности и скорости ветра. Ночью, в пасмурную погоду, а также при ветре 12 м/с и более поправка равна нулю.
P - Атмосферное давление - приведенное к уровню моря атмосферное давление.
Po - Атмосферное давление - измеренное на уровне метеостанции атмосферное давление.
Tmin - Минимальная температура - минимум температуры воздуха на высоте 2 м над землей.
Tmax - Максимальная температура - максимум температуры воздуха на высоте 2 м над землей.
R - Количество осадков - Количество выпавших осадков за период времени, мм. При наведении курсора мыши на число - период времени, за который выпало указанное количество осадков.
R24 - Количество осадков - Количество выпавших осадков за 24 часа, мм.
S - Снежный покров - Высота снежного покрова, см. При наведении курсора мыши на число - состояние снежного покрова и степень покрытия местности в баллах.